Theta_e
311 310 311 310 310 307 303 299 300 312 313 301 303 299 304 302 302 304 302 301 299 296 296 294 294 295 299 302 301 295 295 291 286 290 296 297 293 290 291 285 286 290 288 287
311 310 310 310 310 307 300 295 299 311 310 296 298 302 303 303 301 301 300 299 300 299 294 289 296 297 301 303 301 296 294 287 281 283 287 292 291 292 292 292 289 286 285 285
311 310 310 309 309 308 302 297 296 300 304 303 299 297 298 299 303 300 300 298 298 295 293 293 291 297 301 302 300 305 298 288 285 279 283 287 287 290 291 291 285 285 287 288
311 310 310 309 308 308 302 299 298 298 294 296 295 294 296 298 296 299 299 296 296 293 288 290 290 294 295 299 305 295 291 283 287 288 290 291 290 290 290 287 287 284 287 288
311 310 309 309 309 308 302 296 295 299 295 299 296 294 295 296 297 296 295 294 296 294 289 289 288 290 290 290 295 291 291 283 288 287 291 291 288 290 290 291 291 290 290 290
311 310 309 309 309 307 299 301 302 298 297 296 293 294 296 297 297 297 298 295 293 292 293 294 293 293 294 293 291 289 288 286 283 281 288 287 282 287 289 291 294 292 287 290
310 310 308 309 310 308 301 301 300 294 293 296 296 298 298 296 295 293 296 295 292 296 298 296 294 292 293 293 292 292 288 286 287 282 283 276 286 295 298 295 296 296 296 298
310 309 308 309 310 310 301 303 301 296 291 296 298 298 295 295 295 293 294 297 298 297 294 288 285 286 288 292 293 291 293 289 284 279 277 284 288 295 293 290 290 297 296 297
309 309 308 309 310 310 302 303 305 299 292 293 300 295 296 290 289 292 295 297 298 296 290 287 280 278 286 286 291 295 293 294 287 284 279 276 288 298 300 297 285 299 298 294
308 308 309 309 310 311 304 302 305 300 292 298 298 293 292 294 290 288 291 293 293 293 285 282 279 281 290 281 285 284 289 288 285 285 282 285 295 298 301 282 285 298 298 294
308 308 309 309 310 311 304 301 304 299 293 297 300 300 294 294 289 286 290 290 291 288 283 283 283 282 286 284 288 287 286 285 284 285 283 281 298 297 290 292 295 297 295 294
307 307 307 308 310 310 307 299 305 304 295 294 301 302 301 299 297 291 289 289 291 289 285 285 284 283 283 282 277 291 281 287 287 288 288 297 299 296 297 297 295 296 293 294
306 306 306 307 308 310 307 300 301 299 293 293 296 296 301 303 300 299 289 290 292 291 291 287 284 281 284 279 281 285 290 296 291 290 294 296 297 298 297 297 296 299 296 293
305 305 305 306 307 309 308 301 302 298 293 286 296 304 301 304 303 301 299 296 297 293 290 285 286 286 287 282 284 284 288 290 289 289 293 294 297 298 297 298 300 297 296 295
304 305 305 305 307 308 306 306 304 301 294 286 289 296 300 302 303 301 302 299 296 293 286 286 281 284 284 285 285 283 288 287 285 284 293 292 293 297 299 297 298 298 295 294
304 305 305 304 306 308 300 295 302 305 300 289 285 296 300 302 302 300 299 297 295 293 290 289 289 290 288 280 280 288 294 297 295 292 297 297 298 298 300 299 296 296 294 294
304 304 304 304 306 305 297 295 300 305 302 295 287 289 299 300 297 294 293 294 292 291 288 288 286 286 292 287 281 288 292 294 296 297 298 293 295 293 297 296 296 296 295 294
304 304 305 305 306 304 300 302 304 304 295 292 285 286 294 297 291 288 296 290 293 292 290 289 285 286 290 282 288 292 297 298 298 299 299 296 296 297 295 295 294 293 292 293
304 304 305 303 301 298 299 305 303 301 295 288 287 284 287 297 296 296 294 295 289 293 285 288 290 288 282 288 290 293 297 295 296 298 295 295 293 294 294 293 293 291 291 293
304 302 298 294 299 307 304 298 293 292 293 292 288 290 287 294 291 292 292 292 288 284 286 289 286 283 291 293 295 298 299 299 297 293 289 290 291 292 292 292 293 293 293 294
299 296 293 300 305 298 295 289 288 289 285 288 288 288 286 295 289 288 289 288 286 284 286 286 283 280 291 300 298 299 297 296 294 293 293 293 292 292 292 292 294 293 294 292
299 298 300 299 294 291 289 287 287 286 284 289 287 288 290 292 292 288 288 286 288 283 292 288 279 291 298 299 297 294 294 294 293 294 296 295 295 294 292 292 293 293 293 293
300 294 291 290 289 284 284 282 284 284 288 290 290 288 290 290 291 286 289 285 284 290 288 286 290 295 297 297 295 294 293 293 293 294 294 295 294 295 294 293 295 293 292 292
291 287 283 286 284 285 286 286 289 293 295 291 291 289 290 291 285 287 284 288 290 283 281 284 290 294 297 292 292 291 290 292 292 293 294 293 294 294 295 294 292 292 291 291
288 288 284 286 290 292 295 297 295 298 299 293 289 289 292 290 287 287 286 284 283 286 285 287 292 292 291 290 291 290 291 291 291 293 295 293 294 294 293 292 292 291 291 290
291 289 288 290 290 291 295 293 295 298 293 292 289 285 285 285 286 282 283 281 279 283 290 293 292 289 289 289 291 292 293 292 291 294 296 294 294 293 292 292 292 290 290 289
289 287 291 290 290 290 293 294 296 300 293 285 288 284 282 288 285 284 285 283 290 294 292 291 290 289 289 290 293 294 294 293 292 294 294 293 293 292 291 289 290 289 289 289
Wind_Speed
15 17 18 20 20 24 7 4 2 3 4 4 2 3 3 2 2 4 5 3 2 3 3 3 2 1 3 3 2 3 3 4 0 4 7 5 3 1 3 5 3 3 2 8
14 16 17 18 17 12 4 3 4 3 5 3 1 4 6 4 3 5 4 7 3 3 3 4 1 4 4 6 4 4 0 3 3 9 6 6 6 3 3 4 4 6 5 5
14 15 16 18 19 11 1 2 3 5 4 1 3 3 3 3 4 5 5 3 6 5 2 1 2 3 2 5 5 8 7 3 6 6 4 1 6 7 5 7 4 4 11 17
13 15 16 18 21 23 4 2 3 1 2 3 0 1 1 4 2 3 4 6 5 5 3 3 4 4 4 6 8 4 6 4 3 4 6 5 8 12 13 9 10 11 11 17
10 13 15 17 20 21 2 2 4 5 4 5 2 2 5 6 4 4 4 6 4 6 4 2 2 2 2 2 2 3 3 3 3 4 8 10 13 14 13 15 13 13 14 14
9 11 13 16 17 13 3 4 4 3 5 4 1 1 3 5 3 7 7 4 4 7 3 1 3 5 5 5 5 3 4 6 3 4 4 7 8 7 8 6 2 3 2 1
7 10 12 13 13 8 1 3 1 3 3 4 3 5 6 7 5 5 2 4 4 2 3 2 3 3 6 7 8 7 6 5 3 4 4 3 6 6 2 8 3 2 4 1
7 9 12 11 12 11 1 3 2 2 2 4 7 7 5 5 4 2 5 3 3 2 5 4 5 5 1 5 8 9 8 6 3 3 3 7 8 3 3 1 4 3 3 3
8 9 10 11 11 11 1 3 1 2 2 3 8 3 3 3 2 5 3 3 1 6 4 3 1 3 1 2 2 4 7 4 4 3 4 6 2 2 2 2 4 3 3 3
9 9 10 11 11 10 2 3 3 2 1 3 5 4 2 3 4 3 3 4 5 5 3 2 2 3 2 1 2 2 3 1 7 7 5 6 3 4 1 4 5 3 6 6
9 9 10 10 10 10 4 3 4 3 1 5 4 6 4 3 3 4 3 4 5 4 3 2 3 2 3 2 2 5 5 4 3 2 3 6 3 2 3 6 3 6 5 4
7 9 10 11 10 9 4 2 3 0 3 5 2 5 4 3 6 6 2 5 2 2 4 2 1 2 3 2 2 2 1 6 3 5 3 5 9 7 2 3 4 4 4 4
6 8 10 10 10 9 3 1 3 3 3 4 2 3 2 6 5 5 6 2 1 3 3 3 1 2 2 2 5 1 4 4 3 1 3 7 6 3 3 3 5 6 3 1
6 7 8 8 9 8 0 1 2 3 2 2 2 5 3 7 8 7 6 7 4 5 4 3 1 2 2 3 4 3 5 3 3 4 5 5 6 4 6 7 7 3 3 3
6 7 7 6 7 9 1 1 1 1 3 2 4 7 5 5 8 10 9 8 5 3 2 2 3 3 1 3 2 5 5 7 4 6 6 5 7 7 9 6 1 3 4 6
8 8 6 6 6 7 1 1 1 0 2 3 2 4 2 6 12 10 8 6 4 3 3 1 2 5 1 1 3 7 2 2 4 7 6 7 9 9 5 2 6 5 4 5
8 6 6 6 5 2 1 1 1 2 1 1 3 4 3 8 5 3 3 3 3 3 2 2 2 3 4 2 4 6 7 8 3 2 2 4 5 5 5 6 2 2 5 5
7 5 7 5 2 5 2 2 5 2 2 2 0 3 3 4 2 2 2 3 2 2 2 2 3 3 3 5 8 7 8 2 3 4 2 4 2 5 6 2 3 5 7 8
5 6 4 2 1 1 1 5 4 2 2 1 1 3 3 4 3 2 2 2 2 1 2 3 3 3 5 8 7 7 7 3 4 2 5 6 6 6 6 5 7 6 8 7
5 3 2 2 0 12 8 2 2 2 1 0 2 2 3 5 3 2 2 2 2 3 5 2 3 5 8 7 7 6 3 2 3 6 5 5 4 6 5 5 6 6 8 8
1 1 1 1 5 1 1 1 1 2 2 3 4 4 1 2 4 3 3 3 1 3 2 3 2 4 4 3 1 3 5 6 6 4 6 7 5 2 4 6 7 8 8 4
1 3 2 1 1 1 2 3 3 3 4 4 4 5 4 1 4 4 1 2 3 5 5 2 3 2 3 6 4 6 7 8 8 8 10 5 3 4 5 6 8 7 5 7
1 2 2 1 2 3 4 5 3 3 3 4 2 3 4 3 4 2 2 3 4 1 2 3 1 1 5 5 6 7 7 8 8 8 4 5 6 6 5 7 6 6 7 8
2 2 3 4 3 4 5 3 3 3 2 4 4 2 3 3 2 1 3 4 2 3 2 2 2 4 4 2 5 7 6 7 7 5 4 4 5 6 6 5 5 8 9 8
1 2 3 6 4 3 2 4 2 2 2 3 4 4 2 2 1 3 2 2 3 1 2 3 4 2 5 6 6 6 6 4 4 3 2 4 6 5 5 4 6 8 9 5
3 4 3 4 0 3 4 2 1 2 2 3 4 3 2 2 2 0 5 2 3 4 3 3 4 5 6 5 5 4 3 2 2 4 2 5 5 5 4 4 5 8 9 4
3 3 4 4 4 5 3 3 1 2 2 3 3 5 6 3 2 3 2 2 1 4 1 3 5 6 6 4 4 3 1 1 2 3 4 4 4 6 5 6 5 6 9 8
Wind_Direction
329 334 337 340 343 339 36 337 37 298 87 66 97 244 271 163 98 30 57 104 119 129 104 75 121 220 110 70 72 70 334 131 324 261 277 283 178 95 95 130 283 300 293 254
329 333 337 340 343 6 334 346 277 313 101 154 243 265 265 64 75 44 44 35 52 91 120 97 39 79 106 97 80 139 261 22 22 343 4 2 70 103 122 98 98 230 258 246
327 334 337 339 333 338 196 357 350 328 48 200 113 301 313 110 45 54 76 45 48 77 82 152 117 115 212 104 94 110 83 101 159 197 233 190 312 312 239 193 180 228 241 282
325 333 338 342 333 335 135 170 279 196 327 334 23 113 286 136 108 88 62 18 73 121 83 27 75 31 43 51 138 75 105 181 195 252 272 294 286 273 274 250 230 227 264 257
325 334 342 345 340 339 34 56 36 337 289 289 13 9 23 90 58 55 64 94 52 65 87 87 124 59 81 200 230 108 19 209 163 258 244 258 275 281 277 264 261 259 262 266
326 335 350 348 351 354 16 319 330 103 296 325 51 221 48 55 90 37 67 116 91 76 34 356 235 184 188 198 148 130 141 137 113 262 347 321 283 238 256 232 134 213 218 212
331 335 354 348 356 15 253 267 44 41 295 354 309 111 92 83 71 119 3 42 87 218 288 288 326 277 238 200 211 156 148 138 140 259 19 253 239 317 247 128 133 331 119 358
348 340 349 348 350 350 308 289 47 48 313 307 2 68 104 72 32 66 80 53 154 225 45 40 350 340 328 242 219 190 167 150 157 180 207 290 308 16 1 132 224 216 215 234
357 349 346 345 345 347 4 283 292 84 119 341 314 52 7 113 50 31 114 19 20 70 74 62 218 228 288 296 163 334 161 129 122 170 204 230 181 304 234 197 255 263 306 302
354 349 345 343 342 349 350 285 342 110 82 308 346 65 109 77 74 105 30 351 10 63 65 90 180 262 278 250 110 112 84 70 220 219 233 271 228 276 187 106 222 249 277 263
344 343 345 339 340 345 26 273 9 89 107 287 9 9 49 31 74 128 255 41 351 36 81 144 260 192 274 19 326 170 164 202 215 252 225 255 242 313 193 222 232 237 265 277
335 339 338 336 340 342 15 337 325 27 135 236 292 253 224 162 174 131 33 166 85 179 98 41 10 339 348 108 268 31 246 185 193 208 258 317 321 235 293 198 218 262 284 273
325 327 322 324 330 336 16 321 304 22 42 318 7 225 267 109 125 139 113 353 129 48 157 146 218 274 120 242 247 284 326 163 207 60 241 249 226 286 311 294 289 275 268 279
308 308 309 318 325 332 258 23 310 84 105 95 302 12 45 165 124 107 122 131 78 108 68 87 47 242 117 238 240 204 211 287 221 256 274 304 233 258 264 269 274 312 356 307
315 306 304 315 323 334 302 346 5 110 122 197 280 312 235 126 102 106 104 111 106 86 68 90 232 255 1 278 313 255 194 203 176 238 214 193 248 264 262 260 8 21 358 340
298 303 303 311 315 336 78 286 319 336 106 89 347 304 66 118 107 100 104 96 83 86 125 186 266 250 165 289 253 262 212 240 222 234 221 210 253 260 268 120 51 34 1 313
295 297 299 299 329 311 166 225 185 196 51 19 333 337 100 109 101 72 72 62 103 117 157 205 251 283 177 230 243 257 305 315 337 244 238 297 273 289 69 90 62 314 283 297
296 303 297 304 85 126 116 4 26 101 73 75 216 267 137 170 119 97 156 114 129 186 191 199 224 302 201 250 244 269 270 251 330 313 278 250 312 56 46 63 349 2 339 317
297 295 273 134 266 143 147 124 60 55 112 219 199 189 199 160 87 89 53 105 190 152 218 235 161 243 224 231 244 261 261 212 248 3 21 21 29 54 38 27 357 338 315 320
289 267 222 121 249 124 129 32 53 30 354 189 245 277 237 144 143 140 127 105 226 227 227 176 189 251 249 256 239 247 144 58 24 55 354 353 48 33 15 345 311 310 313 325
259 208 67 18 96 75 92 119 210 147 248 201 227 212 190 328 118 145 189 157 280 263 236 171 252 278 267 273 12 146 76 89 55 53 72 84 87 80 340 339 330 321 333 333
151 115 89 75 55 232 226 186 169 210 237 195 181 202 185 324 88 98 220 214 198 255 145 212 264 271 320 316 85 80 63 55 59 69 84 83 56 357 355 337 329 341 334 320
55 66 105 219 153 200 217 196 206 213 211 194 175 100 126 34 52 75 154 208 233 242 235 222 285 147 272 352 87 70 58 66 56 68 76 42 12 3 348 343 5 338 340 342
168 160 177 223 181 238 207 222 187 221 287 152 120 95 130 133 96 165 196 222 330 256 229 214 233 247 284 115 78 76 60 58 43 84 51 4 339 350 16 44 353 359 348 357
192 209 217 222 243 255 240 304 102 103 351 98 73 42 54 89 192 194 244 233 238 279 202 186 234 214 131 88 78 73 71 50 17 353 60 345 20 61 60 19 13 1 3 25
202 226 262 265 255 331 74 47 355 154 125 75 70 112 105 209 218 256 221 198 223 253 212 180 137 148 112 113 101 86 112 63 13 1 18 44 66 60 88 19 23 16 6 17
243 249 231 236 266 244 169 167 110 29 95 142 130 168 204 186 219 242 193 169 304 326 323 114 149 131 140 132 139 127 139 70 23 40 68 61 62 65 66 29 19 19 11 9